• In Russia
  • List of Countries
  • For 7 days
  • Water Temperature
  • Satellite Maps
  • Weather Map
  • Weather Widgets
  • user-avatar
    Login

    Hourly Weather Gjirokaster

    Today, 5 December, Monday

    Time Temperature Precipitation Wind Pressure Humidity
    00:00 -1°C° 0 mm 3 mps 656 mmHg 83%
    01:00 -1°C° 0 mm 3 mps 656 mmHg 83%
    02:00 -1°C° 0 mm 3 mps 656 mmHg 83%
    03:00 -1°C° 0 mm 3 mps 656 mmHg 83%
    04:00 -1°C° 0 mm 3 mps 656 mmHg 83%
    05:00 -2°C° 0 mm 3 mps 656 mmHg 83%
    06:00 -2°C° 0 mm 3 mps 656 mmHg 84%
    07:00 -2°C° 0 mm 3 mps 656 mmHg 85%
    08:00 0°C° 0 mm 3 mps 657 mmHg 79%
    09:00 +3°C° 0 mm 2 mps 658 mmHg 73%
    10:00 +4°C° 0 mm 2 mps 658 mmHg 67%
    11:00 +5°C° 0 mm 2 mps 658 mmHg 65%
    12:00 +6°C° 0 mm 2 mps 658 mmHg 62%
    13:00 +6°C° 0 mm 2 mps 659 mmHg 60%
    14:00 +5°C° 0 mm 2 mps 658 mmHg 65%
    15:00 +4°C° 0 mm 2 mps 658 mmHg 71%
    16:00 +3°C° 0 mm 2 mps 658 mmHg 77%
    17:00 +2°C° 0 mm 2 mps 658 mmHg 78%
    18:00 +2°C° 0 mm 2 mps 658 mmHg 79%
    19:00 +1°C° 0 mm 2 mps 658 mmHg 80%
    20:00 +1°C° 0 mm 2 mps 658 mmHg 80%
    21:00 +1°C° 0 mm 2 mps 658 mmHg 80%
    22:00 -1°C° 0 mm 2 mps 658 mmHg 80%
    23:00 -1°C° 0.3 mm 3 mps 658 mmHg 82%

    Tomorrow, 6 December, Tuesday

    Time Temperature Precipitation Wind Pressure Humidity
    00:00 0°C° 0.3 mm 3 mps 657 mmHg 83%
    01:00 0°C° 0.3 mm 3 mps 657 mmHg 84%
    02:00 0°C° 0.3 mm 3 mps 657 mmHg 85%
    03:00 0°C° 0.3 mm 3 mps 657 mmHg 85%
    04:00 0°C° 0.3 mm 3 mps 656 mmHg 86%
    05:00 +1°C° 0.3 mm 2 mps 656 mmHg 86%
    06:00 +1°C° 0.3 mm 2 mps 656 mmHg 87%
    07:00 +2°C° 0.3 mm 2 mps 656 mmHg 87%
    08:00 +3°C° 0.2 mm 2 mps 657 mmHg 86%
    09:00 +3°C° 0.2 mm 2 mps 657 mmHg 84%
    10:00 +4°C° 0.2 mm 2 mps 657 mmHg 82%
    11:00 +5°C° 0.2 mm 2 mps 657 mmHg 82%
    12:00 +5°C° 0.2 mm 2 mps 657 mmHg 82%
    13:00 +6°C° 0.2 mm 2 mps 657 mmHg 82%
    14:00 +5°C° 0.1 mm 2 mps 656 mmHg 85%
    15:00 +4°C° 0.1 mm 2 mps 656 mmHg 88%
    16:00 +3°C° 0.1 mm 2 mps 656 mmHg 92%
    17:00 +3°C° 0.1 mm 2 mps 656 mmHg 92%
    18:00 +2°C° 0.1 mm 2 mps 656 mmHg 93%
    19:00 +2°C° 0.1 mm 2 mps 656 mmHg 94%
    20:00 +2°C° 0.1 mm 2 mps 656 mmHg 94%
    21:00 +2°C° 0.1 mm 2 mps 656 mmHg 94%
    22:00 +2°C° 0.1 mm 2 mps 656 mmHg 94%
    23:00 +2°C° 0.1 mm 2 mps 656 mmHg 93%

    Day after tomorrow, 7 December, Wednesday

    Time Temperature Precipitation Wind Pressure Humidity
    00:00 +2°C° 0.1 mm 2 mps 656 mmHg 93%
    01:00 +2°C° 0.1 mm 2 mps 656 mmHg 92%
    02:00 +2°C° 0.2 mm 2 mps 656 mmHg 92%
    03:00 +2°C° 0.2 mm 2 mps 656 mmHg 92%
    04:00 +2°C° 0.2 mm 2 mps 656 mmHg 92%
    05:00 +2°C° 0.2 mm 2 mps 656 mmHg 92%
    06:00 +2°C° 0.2 mm 2 mps 656 mmHg 91%
    07:00 +2°C° 0.2 mm 2 mps 657 mmHg 91%
    08:00 +3°C° 0.4 mm 2 mps 657 mmHg 88%
    09:00 +3°C° 0.4 mm 2 mps 658 mmHg 85%
    10:00 +4°C° 0.4 mm 2 mps 658 mmHg 83%
    11:00 +4°C° 0.6 mm 2 mps 658 mmHg 82%
    12:00 +4°C° 0.6 mm 2 mps 658 mmHg 81%
    13:00 +4°C° 0.6 mm 2 mps 658 mmHg 80%
    14:00 +4°C° 0.5 mm 2 mps 658 mmHg 82%
    15:00 +3°C° 0.5 mm 2 mps 658 mmHg 83%
    16:00 +2°C° 0.5 mm 2 mps 658 mmHg 85%
    17:00 +2°C° 0.3 mm 2 mps 658 mmHg 85%
    18:00 +2°C° 0.3 mm 2 mps 658 mmHg 84%
    19:00 +1°C° 0.3 mm 2 mps 659 mmHg 84%
    20:00 0°C° 0.2 mm 3 mps 659 mmHg 84%
    21:00 0°C° 0.2 mm 3 mps 659 mmHg 83%
    22:00 0°C° 0.2 mm 3 mps 659 mmHg 83%
    23:00 -1°C° 0.1 mm 3 mps 660 mmHg 83%

    8 December, Thursday

    Time Temperature Precipitation Wind Pressure Humidity
    00:00 -1°C° 0.1 mm 3 mps 660 mmHg 83%
    01:00 -1°C° 0.1 mm 3 mps 660 mmHg 83%
    02:00 -1°C° 0.1 mm 3 mps 660 mmHg 83%
    03:00 -2°C° 0.1 mm 3 mps 660 mmHg 83%
    04:00 -2°C° 0.1 mm 3 mps 660 mmHg 83%
    05:00 -2°C° 0.1 mm 3 mps 660 mmHg 83%
    06:00 -2°C° 0.1 mm 3 mps 660 mmHg 82%
    07:00 -2°C° 0.1 mm 3 mps 660 mmHg 82%
    08:00 -1°C° 0.1 mm 2 mps 661 mmHg 79%
    09:00 +2°C° 0.1 mm 2 mps 661 mmHg 76%
    10:00 +3°C° 0.1 mm 2 mps 662 mmHg 72%
    11:00 +4°C° 0 mm 2 mps 662 mmHg 70%
    12:00 +6°C° 0 mm 1 mps 662 mmHg 68%
    13:00 +7°C° 0 mm 1 mps 661 mmHg 66%
    14:00 +6°C° 0 mm 1 mps 661 mmHg 72%
    15:00 +5°C° 0 mm 1 mps 661 mmHg 77%
    16:00 +4°C° 0 mm 1 mps 660 mmHg 83%
    17:00 +3°C° 0 mm 1 mps 660 mmHg 84%
    18:00 +2°C° 0 mm 1 mps 660 mmHg 85%
    19:00 +2°C° 0 mm 1 mps 660 mmHg 86%
    20:00 +1°C° 0 mm 1 mps 660 mmHg 86%
    21:00 +1°C° 0 mm 1 mps 660 mmHg 87%
    22:00 -1°C° 0 mm 0 mps 660 mmHg 87%
    23:00 -1°C° 0 mm 0 mps 659 mmHg 87%

    9 December, Friday

    Time Temperature Precipitation Wind Pressure Humidity
    00:00 -1°C° 0 mm 0 mps 659 mmHg 87%
    01:00 -1°C° 0 mm 0 mps 659 mmHg 86%
    02:00 0°C° 0.1 mm 1 mps 658 mmHg 86%
    03:00 0°C° 0.1 mm 1 mps 658 mmHg 85%
    04:00 0°C° 0.1 mm 1 mps 658 mmHg 84%
    05:00 0°C° 0 mm 1 mps 658 mmHg 83%
    06:00 0°C° 0 mm 1 mps 658 mmHg 81%
    07:00 0°C° 0 mm 1 mps 657 mmHg 80%
    08:00 +2°C° 0 mm 1 mps 658 mmHg 71%
    09:00 +5°C° 0 mm 1 mps 659 mmHg 62%
    10:00 +7°C° 0 mm 1 mps 660 mmHg 53%
    11:00 +8°C° 0 mm 1 mps 659 mmHg 51%
    12:00 +8°C° 0 mm 1 mps 659 mmHg 49%
    13:00 +8°C° 0 mm 2 mps 659 mmHg 47%
    14:00 +6°C° 0 mm 2 mps 658 mmHg 52%
    15:00 +4°C° 0 mm 2 mps 657 mmHg 56%
    16:00 +2°C° 0 mm 2 mps 657 mmHg 61%
    17:00 +1°C° 0 mm 2 mps 657 mmHg 58%
    18:00 +1°C° 0 mm 2 mps 656 mmHg 56%
    19:00 -1°C° 0 mm 2 mps 656 mmHg 54%
    20:00 -1°C° 0 mm 2 mps 656 mmHg 53%
    21:00 -2°C° 0 mm 2 mps 656 mmHg 52%
    22:00 -2°C° 0 mm 2 mps 656 mmHg 51%
    23:00 -2°C° 0 mm 3 mps 656 mmHg 52%

    10 December, Saturday

    Time Temperature Precipitation Wind Pressure Humidity
    00:00 -2°C° 0 mm 3 mps 655 mmHg 52%
    01:00 -4°C° 0 mm 3 mps 655 mmHg 53%
    02:00 -4°C° 0 mm 3 mps 655 mmHg 53%
    03:00 -4°C° 0 mm 3 mps 655 mmHg 52%
    04:00 -4°C° 0 mm 3 mps 654 mmHg 52%
    05:00 -4°C° 0 mm 3 mps 654 mmHg 50%
    06:00 -4°C° 0 mm 3 mps 654 mmHg 49%
    07:00 -4°C° 0 mm 3 mps 654 mmHg 47%
    08:00 +1°C° 0 mm 2 mps 655 mmHg 44%
    09:00 +3°C° 0 mm 2 mps 656 mmHg 42%
    10:00 +6°C° 0 mm 2 mps 656 mmHg 40%
    11:00 +7°C° 0 mm 2 mps 656 mmHg 40%
    12:00 +7°C° 0 mm 2 mps 656 mmHg 40%
    13:00 +8°C° 0 mm 2 mps 656 mmHg 40%
    14:00 +6°C° 0 mm 2 mps 656 mmHg 48%
    15:00 +4°C° 0 mm 2 mps 655 mmHg 55%
    16:00 +2°C° 0 mm 2 mps 654 mmHg 63%
    17:00 +1°C° 0 mm 2 mps 654 mmHg 65%
    18:00 -1°C° 0 mm 2 mps 654 mmHg 67%
    19:00 +1°C° 0 mm 1 mps 654 mmHg 69%
    20:00 0°C° 0 mm 1 mps 654 mmHg 70%
    21:00 0°C° 0 mm 1 mps 654 mmHg 70%
    22:00 0°C° 0 mm 1 mps 654 mmHg 71%
    23:00 0°C° 0 mm 1 mps 653 mmHg 73%
    Show more